CAPE
0 0 0 0 0 0 0 0 0 0 0 0 0 0 0 0 0 0 0 0 0 0 0 0 0 0 338 1722 667 0 6 1474 1575 1833 1691 1950 1751 1938 1739 1353 1734 1486 1356 1439
0 0 0 0 0 0 0 0 0 0 0 0 0 0 0 0 0 0 0 0 0 0 0 0 0 0 201 1926 1477 752 867 1382 1729 1766 1707 1766 1616 1852 1726 1800 1993 2412 1777 1784
0 0 3 0 0 0 0 0 0 0 0 0 0 0 0 0 0 0 0 0 0 0 0 0 0 0 65 2870 2601 1984 2206 1997 1715 2130 2337 2326 2324 1873 2409 2221 2225 2814 2269 2447
0 0 4 11 19 0 0 0 0 0 0 0 0 0 0 0 0 0 0 0 0 0 0 0 0 0 0 1573 2773 3094 2780 2787 2897 3024 2928 2429 2759 2225 2421 2542 2497 2392 2184 2078
0 0 18 39 0 0 0 10 20 23 0 0 0 0 0 0 0 0 0 0 0 0 0 0 0 0 0 728 2231 3162 3277 3130 3318 3380 3028 2723 2435 2373 2372 2436 2567 2430 2076 2052
0 0 14 7 2 0 8 26 11 1 0 12 0 0 0 0 0 0 0 0 0 0 0 0 0 0 0 226 1353 1992 3298 3241 3211 3376 2621 2308 1967 2024 1780 1902 2356 2373 2286 2274
0 4 8 47 0 0 0 4 28 0 0 0 0 0 0 0 0 0 0 0 0 0 0 0 0 0 0 21 88 312 1755 2873 3398 2852 2836 2089 1834 1493 1317 1866 2006 2186 1939 1845
0 0 24 64 20 45 8 0 34 9 5 0 0 0 0 0 0 0 0 0 0 0 0 0 0 0 0 1 0 61 543 2080 2936 2760 2393 1890 2002 2287 2221 2099 1936 1867 1697 1262
29 10 35 24 73 3 14 13 37 39 23 21 0 0 0 0 0 0 0 0 0 0 0 0 0 0 0 0 0 0 73 679 2491 2562 2096 2053 2160 2095 1764 1174 1072 926 834 633
24 15 0 16 103 16 49 116 116 0 11 2 0 0 0 118 94 0 0 0 0 0 0 0 0 0 0 0 0 82 205 1030 2590 2141 1996 1881 1191 786 441 354 309 285 273 301
57 31 0 0 94 136 24 28 14 0 1 0 0 0 106 188 34 21 45 0 4 536 117 0 0 0 0 0 7 212 1675 2473 2122 1752 1378 717 461 295 248 238 189 145 76 30
4 0 0 0 0 1 10 23 19 0 0 0 0 0 70 99 9 40 559 8 1935 1721 1532 1361 208 0 0 913 1734 1747 1717 1442 1238 803 377 290 214 18 0 0 0 0 0 0
19 20 1 0 16 0 5 0 17 9 27 0 2 11 2 98 21 40 936 1671 1746 1708 1777 1688 1771 1917 1945 1787 1703 1223 862 739 579 290 42 0 0 0 0 0 0 0 0 0
41 5 1 1 0 2 7 9 2 6 0 1 7 7 1 0 3 25 68 1060 1598 1711 1797 1564 1503 1535 1510 1302 980 573 287 113 3 0 0 0 0 0 0 0 0 0 0 0
27 0 0 5 0 0 0 0 0 1 0 16 60 61 14 18 35 0 62 641 1194 1830 1723 1643 1518 1171 997 565 249 54 1 0 0 0 0 0 0 0 0 0 0 0 0 0
24 3 5 0 0 0 0 0 0 0 0 1 12 76 117 198 34 141 475 750 990 1623 1609 1260 973 620 421 175 1 0 0 0 0 0 0 0 0 0 0 0 0 0 0 0
0 3 3 0 0 0 0 12 0 0 0 0 102 26 24 96 154 366 266 110 6 72 693 540 398 123 14 0 0 0 0 0 0 0 0 0 0 0 0 0 0 0 0 0
2 1 23 1 0 0 56 0 3 0 0 13 85 5 1 74 18 36 28 0 1 1 1 4 0 0 0 0 0 0 0 0 0 0 0 0 0 0 0 0 0 0 0 0
0 0 7 0 2 0 1 4 10 15 51 77 25 168 32 0 0 10 3 3 0 0 0 3 0 0 0 0 0 0 0 0 0 0 0 0 0 0 0 0 0 0 0 0
0 0 1 8 0 2 8 6 2 2 224 9 122 158 3 0 0 9 6 3 2 0 0 0 0 0 0 0 0 0 0 0 0 0 0 0 0 0 0 0 0 0 0 0
5 2 1 2 3 8 7 5 0 18 21 3 78 72 16 0 0 4 4 3 2 1 1 0 0 0 0 0 0 0 0 0 0 0 0 0 0 0 0 0 0 0 0 0
3 2 2 3 3 3 2 0 3 4 0 4 35 20 1 1 2 2 3 2 2 1 0 0 0 0 0 0 0 0 0 0 0 0 0 0 0 0 0 0 0 0 0 0
4 12 8 8 7 4 8 10 5 3 20 64 16 2 2 2 1 1 1 1 3 3 3 1 0 0 0 0 0 0 0 0 0 0 0 0 0 0 0 0 0 0 0 0
12 7 12 10 10 10 8 2 2 3 0 2 0 1 2 1 1 2 2 1 2 1 2 0 0 0 0 0 0 0 0 0 0 0 0 0 0 0 0 0 0 0 0 0
11 11 10 7 3 7 8 5 5 2 1 0 0 2 1 2 3 2 2 2 1 2 0 0 0 0 0 0 0 0 0 0 0 0 0 0 0 0 0 0 0 0 0 0
14 8 10 2 18 17 16 13 6 2 3 1 1 1 0 0 0 0 1 1 2 3 4 0 0 0 0 0 0 0 0 0 0 0 0 0 0 0 0 0 0 0 0 0
CIN
0 0 0 0 0 0 0 0 0 0 0 0 0 0 0 0 0 0 0 0 0 0 0 0 0 0 -45 -270 -342 0 -177 -305 -299 -153 -205 -130 -123 -120 -145 -199 -139 -247 -257 -207
0 0 0 0 0 0 0 0 0 0 0 0 0 0 0 0 0 0 0 0 0 0 0 0 0 0 -38 -213 -221 -274 -283 -258 -294 -284 -145 -118 -132 -124 -126 -110 -87 -104 -187 -175
-1 0 0 0 0 0 0 0 0 0 0 0 0 0 0 0 0 0 0 0 0 0 0 0 0 0 -51 -126 -119 -124 -122 -169 -201 -160 -106 -98 -65 -69 -38 -60 -61 -83 -98 -114
0 0 -24 -11 -17 0 0 0 0 0 0 0 0 0 0 0 0 0 0 0 0 0 0 0 0 0 0 -208 -130 -52 -83 -120 -93 -95 -98 -103 -56 -96 -68 -54 -102 -126 -148 -121
0 0 -35 -57 0 0 -2 -48 -65 -51 -5 -5 0 0 0 0 0 -1 0 0 0 0 0 0 0 0 0 -208 -189 -132 -102 -90 -84 -75 -105 -96 -77 -88 -130 -126 -91 -79 -104 -95
-14 0 -65 -22 -26 0 -35 -63 -47 -37 0 -44 0 0 0 0 0 0 0 0 0 0 0 0 0 0 0 -229 -197 -167 -103 -94 -74 -81 -102 -100 -87 -71 -116 -111 -73 -61 -67 -66
0 -28 -61 -35 0 0 0 -7 -25 0 0 0 0 0 0 0 0 0 0 0 0 0 0 0 0 0 0 -456 -385 -348 -207 -169 -110 -121 -88 -106 -126 -177 -134 -110 -93 -70 -91 -81
0 0 -32 -34 -57 -58 -154 0 -27 -12 -22 0 -11 -9 0 0 0 0 0 0 0 0 0 0 0 0 0 -321 0 -393 -320 -183 -133 -121 -124 -123 -137 -95 -89 -77 -81 -98 -91 -111
-1 -25 -40 -76 -35 -42 -87 -95 -57 -37 -25 -27 0 0 0 0 0 0 0 0 0 0 0 0 0 0 0 0 0 -86 -466 -263 -148 -134 -156 -103 -83 -76 -93 -136 -196 -206 -192 -203
-2 -2 0 -62 -51 -51 -35 -81 -24 -35 -15 -8 0 0 0 -78 -111 0 0 0 0 0 0 0 0 0 0 0 0 -435 -377 -256 -112 -131 -103 -82 -155 -181 -257 -317 -339 -318 -304 -293
-5 0 0 0 -80 -42 -21 -34 -36 -2 -17 0 0 0 -70 -176 -271 -290 -297 0 -59 -212 -258 0 0 0 0 0 -249 -355 -187 -114 -115 -135 -117 -220 -244 -281 -282 -282 -267 -312 -359 -405
-13 0 0 0 -2 -38 -63 -21 -23 -1 0 0 0 0 -150 -262 -337 -361 -169 -75 -175 -235 -263 -260 -194 0 0 -283 -160 -120 -155 -212 -206 -234 -258 -249 -244 -528 0 0 0 0 0 0
-6 -1 0 0 -42 0 0 0 -12 -26 -34 0 0 -8 -201 -164 -230 -330 -144 -118 -164 -183 -197 -242 -244 -207 -145 -107 -94 -194 -239 -265 -241 -218 -252 0 0 0 0 0 0 0 0 0
-2 -4 -1 -1 0 -1 -2 -1 -2 0 -1 0 -5 -39 -246 0 -45 -24 -288 -136 -137 -148 -149 -167 -165 -149 -111 -125 -197 -253 -274 -300 -38 0 0 0 0 0 0 0 0 0 0 0
-10 0 0 -3 0 0 0 0 0 0 0 0 -29 -16 -97 -15 -28 0 -302 -89 -48 -58 -65 -93 -83 -52 -88 -199 -228 -237 -60 0 0 0 0 0 0 0 0 0 0 0 0 0
-4 -6 -2 0 0 0 0 0 0 0 0 0 -86 -17 -100 -43 -107 -108 -64 -19 -8 -7 -8 -72 -106 -107 -141 -183 -1 -3 0 0 0 0 0 0 0 0 0 0 0 0 0 0
0 -1 -4 0 0 0 0 -3 0 0 0 0 -40 -115 -175 -97 -20 -27 -49 -96 -36 -108 -17 -44 -68 -107 -226 0 0 0 0 0 0 0 0 0 0 0 0 0 0 0 0 0
0 -3 -2 0 0 0 -1 0 -31 0 0 -8 -94 -133 -142 -85 -15 -30 -70 0 0 0 -11 -1 0 0 0 0 0 0 0 0 0 0 0 0 0 0 0 0 0 0 0 0
0 -4 -3 0 0 0 0 0 0 -10 -33 -67 -200 -84 -98 0 0 0 0 0 0 0 0 -1 0 0 0 0 0 0 0 0 0 0 0 0 0 0 0 0 0 0 0 0
0 0 0 0 0 0 0 0 0 0 -1 -73 -127 -90 -201 -10 0 0 0 0 0 0 0 0 0 0 0 0 0 0 0 0 0 0 0 0 0 0 0 0 0 0 0 0
0 0 0 0 0 0 0 0 0 -40 -5 0 -34 -139 -145 0 0 0 0 0 -1 -1 0 0 0 0 0 0 0 0 0 0 0 0 0 0 0 0 0 0 0 0 0 0
0 0 0 0 0 0 0 0 0 0 0 0 -25 -24 0 0 0 0 0 0 0 0 0 0 0 0 0 0 0 0 0 0 0 0 0 0 0 0 0 0 0 -3 0 0
0 0 0 0 0 0 0 0 0 0 -9 -9 -18 0 0 0 0 0 0 0 0 0 0 -1 0 0 0 0 0 0 0 0 0 0 0 0 0 0 0 0 0 0 0 0
0 0 0 0 0 0 0 0 0 0 0 0 0 0 0 0 0 0 0 0 0 0 0 0 0 0 0 0 0 0 0 0 0 0 0 0 0 0 0 0 0 0 0 0
0 0 0 0 0 0 0 0 0 0 0 0 0 0 0 0 0 0 0 0 0 0 0 0 0 0 0 0 0 0 0 0 0 0 0 0 0 0 0 0 0 0 0 0
0 0 0 0 0 0 0 0 0 0 0 0 0 0 0 0 0 0 0 0 0 0 0 0 0 0 0 0 0 0 0 0 0 0 0 0 0 0 0 0 0 0 0 0
Wind_Speed
11 8 16 10 16 19 18 18 20 20 16 22 18 23 21 18 19 17 12 9 10 11 9 8 10 9 10 19 20 16 13 11 11 9 8 6 5 3 3 5 8 13 11 10
12 21 16 14 19 20 22 23 23 21 19 15 16 26 20 18 19 23 16 10 12 9 11 10 9 10 11 20 20 21 21 17 12 11 12 8 5 3 3 3 4 7 11 12
16 21 16 21 22 22 21 19 17 20 18 21 17 20 14 11 21 22 20 18 11 13 19 19 13 10 9 18 22 19 21 19 20 17 11 6 4 4 3 4 3 4 11 10
18 19 23 20 16 23 21 19 21 19 15 14 10 15 15 8 16 17 25 19 15 13 8 18 18 8 11 14 17 23 21 20 16 16 13 17 11 7 8 4 3 4 6 7
15 24 27 9 15 20 16 13 11 14 14 15 16 11 10 6 18 14 19 16 18 15 12 10 9 9 11 14 16 18 19 18 16 12 12 12 9 4 4 6 9 6 5 6
17 23 22 13 18 21 16 6 8 11 11 12 16 14 16 13 17 17 14 11 21 17 15 15 11 8 11 15 17 17 21 19 18 15 13 9 11 7 5 5 5 4 3 4
13 21 29 10 8 18 22 9 4 4 5 11 14 15 14 10 15 18 16 18 17 18 19 19 15 9 10 16 18 15 16 14 13 13 9 11 12 10 8 7 6 6 4 3
9 15 11 4 13 8 3 8 8 6 6 10 16 17 13 20 19 15 18 20 24 19 16 23 20 13 15 16 18 18 16 13 14 14 11 10 8 5 7 5 5 4 4 5
7 6 10 12 3 3 5 6 7 5 6 4 4 23 16 21 22 19 21 20 17 14 22 20 23 16 13 19 18 18 17 16 14 13 12 11 8 10 9 10 9 8 10 8
4 7 9 4 4 15 11 3 6 3 5 5 8 11 11 1 8 15 23 22 20 19 24 20 19 19 14 18 18 16 17 17 16 15 11 9 13 13 12 11 11 11 10 10
2 4 5 5 4 5 4 5 6 3 4 5 8 12 6 4 5 12 23 21 8 2 9 12 18 15 14 17 20 16 16 19 16 15 15 16 14 14 12 11 10 10 9 8
2 1 5 7 11 2 3 4 5 5 7 6 6 8 3 7 6 15 22 11 11 10 11 9 7 9 12 17 18 19 18 19 17 18 17 15 15 14 13 13 11 10 10 8
3 3 5 8 8 11 3 8 5 9 2 13 8 5 15 15 11 17 7 14 13 14 18 15 15 16 20 20 20 19 18 19 18 19 19 15 14 14 12 12 11 11 11 11
4 4 4 3 10 9 10 10 4 4 6 3 10 13 8 18 18 17 8 11 9 12 17 18 15 15 16 19 20 20 19 18 20 19 18 17 14 13 12 12 12 11 10 11
6 3 4 9 15 17 17 19 17 6 7 5 4 6 5 8 14 9 7 8 4 13 12 18 17 12 17 20 21 19 20 19 19 21 18 16 12 12 13 12 12 12 11 9
3 4 7 8 15 9 16 18 18 20 16 15 13 4 5 3 3 4 6 4 5 4 10 12 19 19 19 23 20 20 20 18 19 21 17 15 13 12 12 11 11 10 9 9
11 5 5 5 9 17 10 9 18 18 15 15 7 7 7 3 6 3 11 13 14 13 9 9 13 14 21 23 21 22 21 19 19 18 15 12 11 12 11 10 10 8 8 7
9 6 2 6 8 3 7 19 5 12 13 10 13 16 10 13 13 11 11 19 18 22 15 10 20 16 19 21 23 20 20 16 17 14 13 12 13 12 10 9 7 7 6 10
16 6 2 3 3 10 6 13 11 9 5 9 11 12 17 22 24 10 13 15 17 24 20 11 20 22 25 21 21 21 19 20 17 14 12 11 11 10 8 8 6 6 11 10
10 8 2 2 2 5 4 22 19 13 4 11 16 13 17 13 13 4 11 17 17 18 20 13 20 20 22 18 19 20 17 16 14 12 10 10 9 8 9 9 9 6 9 8
3 2 5 6 3 6 11 26 14 5 2 12 6 19 14 12 10 10 16 18 17 17 17 19 19 18 17 16 19 17 15 13 10 10 8 9 10 11 9 8 6 6 6 7
1 3 1 3 2 5 21 12 7 9 15 12 1 8 25 22 16 15 17 19 16 18 17 17 18 16 14 16 17 13 12 8 9 8 11 12 10 8 7 8 6 5 5 6
3 5 2 4 3 7 11 8 12 15 4 8 5 18 21 21 19 17 17 18 17 15 14 13 15 17 13 10 9 11 5 8 9 12 11 11 11 8 8 7 5 4 5 4
2 6 2 2 5 11 11 11 14 11 12 15 19 18 20 20 18 17 17 17 15 14 12 12 14 13 11 9 9 7 7 9 11 13 10 9 11 10 9 6 6 6 6 5
4 5 3 2 4 2 13 12 11 15 18 19 16 17 20 19 18 17 15 15 14 13 10 10 10 10 9 8 9 6 5 5 10 11 10 9 8 9 8 7 5 7 4 5
6 5 4 3 4 10 11 12 14 22 18 17 20 19 17 19 19 18 16 13 12 11 8 7 4 7 9 8 9 6 8 7 8 8 6 6 7 6 6 7 7 11 11 12
Wind_Direction
202 217 228 216 229 243 263 265 253 253 241 243 247 254 242 221 216 232 222 222 232 231 225 217 217 224 147 157 155 156 169 174 163 175 168 188 206 196 200 192 175 180 184 183
254 233 234 234 246 240 235 245 258 272 272 278 268 253 249 233 221 213 210 206 214 228 230 227 212 209 164 171 164 169 180 185 186 179 188 186 188 202 194 196 192 170 180 182
245 261 241 224 241 248 242 246 248 244 254 267 266 274 272 264 228 208 208 196 202 201 228 223 212 199 163 166 165 166 173 188 189 177 172 164 156 199 193 201 188 179 179 167
245 262 252 267 267 235 246 237 249 262 259 246 250 263 261 249 278 245 204 197 210 214 217 211 212 199 189 176 165 163 164 177 183 169 170 181 192 179 210 173 140 126 142 128
299 304 299 282 282 302 281 291 334 309 293 292 248 253 264 252 232 262 196 205 211 208 187 204 205 199 191 175 168 166 158 161 168 176 170 180 191 146 113 111 117 121 116 127
214 254 257 239 243 260 269 270 314 326 298 272 250 232 251 241 246 268 251 212 204 213 196 202 203 183 192 176 167 165 166 173 174 169 173 160 147 150 131 130 137 149 132 148
296 274 274 229 268 277 278 213 204 289 267 259 255 240 227 219 224 215 238 232 222 203 201 198 200 179 159 173 164 158 157 158 162 173 144 159 154 148 148 148 139 146 156 119
274 291 248 266 254 289 228 325 226 209 220 265 259 260 233 246 244 239 235 232 231 222 190 194 200 193 163 178 168 164 157 154 154 158 144 147 141 132 136 127 132 133 126 103
298 252 325 296 236 342 308 254 295 174 192 256 276 270 240 232 236 236 255 256 257 233 209 184 194 196 160 175 181 168 165 168 155 147 130 130 122 115 108 102 99 102 102 100
246 281 254 316 13 183 199 147 318 3 179 226 234 270 247 297 318 267 240 249 251 265 197 183 180 191 183 167 171 168 161 153 137 128 123 108 104 101 106 106 102 102 103 104
268 260 290 295 208 180 160 150 178 189 161 202 263 252 190 262 313 317 293 235 228 140 148 174 185 176 173 155 164 154 134 124 118 112 111 110 108 105 107 101 105 110 108 109
130 247 277 265 256 52 163 324 202 176 184 208 244 270 354 295 347 315 272 236 111 71 71 72 116 150 131 122 123 121 117 113 115 113 105 106 108 103 102 98 98 98 97 88
342 244 308 333 38 44 355 285 303 256 297 234 245 263 347 336 352 307 335 98 86 90 76 74 78 97 112 114 117 110 110 112 110 110 108 109 109 105 101 100 95 89 85 76
258 259 235 270 308 291 278 285 249 191 241 303 258 287 2 337 317 276 350 41 92 83 101 92 91 105 117 122 114 108 109 111 110 106 111 102 96 99 97 92 84 81 81 76
171 235 277 297 296 289 286 283 288 206 242 252 269 277 134 246 277 274 354 346 70 83 91 115 115 120 118 106 105 110 106 110 112 106 100 98 99 95 92 87 84 74 69 71
208 283 311 289 288 317 305 273 253 246 203 221 251 257 180 250 314 305 282 291 54 111 105 115 116 125 121 112 113 112 107 106 107 102 101 101 100 96 89 86 82 78 72 67
287 281 358 259 334 311 277 296 227 216 214 198 199 184 177 101 286 47 68 71 68 47 79 93 95 131 117 112 114 109 109 102 99 102 105 108 108 99 92 87 85 81 83 89
249 271 211 283 304 266 335 331 320 196 226 185 130 167 178 103 61 75 91 92 82 64 52 71 97 68 99 104 102 102 98 104 96 95 96 94 97 95 92 89 90 99 99 86
214 212 265 273 298 288 357 354 352 360 293 138 125 125 114 99 79 47 91 89 94 92 70 38 97 93 70 81 86 87 86 82 81 83 82 81 87 93 92 96 94 79 91 82
70 105 162 324 301 302 355 327 322 316 92 113 128 128 131 133 101 78 84 90 88 88 99 91 73 84 82 76 80 84 82 85 84 83 82 82 91 93 86 79 79 77 86 99
119 167 216 232 246 239 349 327 321 51 19 302 208 141 151 110 99 118 102 79 83 83 87 86 79 79 85 88 83 79 80 83 92 95 88 92 87 86 85 81 81 85 86 93
331 266 241 276 320 360 350 349 23 308 298 309 303 122 103 108 112 108 96 91 80 80 76 82 87 78 75 77 83 83 81 88 89 94 87 83 85 80 75 85 73 76 108 107
40 355 15 15 356 306 322 327 310 304 51 113 121 111 120 118 117 111 101 95 90 79 75 75 80 79 62 60 73 84 74 103 92 87 89 82 89 83 63 65 68 56 63 79
52 16 38 235 353 346 0 354 351 11 38 108 117 126 116 118 115 109 104 98 91 84 77 83 83 86 85 76 75 69 54 82 99 96 93 92 83 72 52 57 51 54 35 23
320 336 15 49 311 333 25 22 9 46 51 68 85 111 115 112 106 107 103 99 98 97 84 78 82 91 95 87 78 73 59 107 90 108 107 105 90 89 80 63 71 75 51 69
348 344 24 21 51 66 41 41 52 60 53 62 74 86 89 99 103 100 99 99 102 101 98 95 120 110 99 89 78 56 53 49 102 91 91 120 114 120 108 103 82 53 64 68